www.pogodaiklimat.ru

Погода и климат >> Архив погоды >> Япония >> Минамитори


ПОГОДА на Минамитори

  • Прогноз погоды на Минамитори
  • Монитор погоды на Минамитори

АРХИВ ПОГОДЫ на Минамитори

Время (UTC), дата Ветер
(напр.,м/с)
 
Видим.   Явления Облачность Т
(С)
Тd
(С)
f
(%)
Тe
(С)
Тes
(С)
Комфортность P
(гПа)
Po
(гПа)
Тmin
(С)
Tmax
(С)
R
(мм)
R24
(мм)
S
(см)
19 10.06 Ю 4 н/о н/о +27.1 +24.0 83 +37 +37 очень
душно
1015.1 1014.1
20 10.06 Ю 5 н/о н/о +27.6 +24.7 84 +39 +39 очень
душно
1015.6 1014.6
21 10.06 Ю 5 н/о н/о +28.7 +25.3 82 +42 +42 опасность
перегрева
1016.1 1015.1
22 10.06 Ю 5 н/о н/о +29.3 +24.9 77 +42 +42 опасность
перегрева
1016.3 1015.3
23 10.06 Ю 5 н/о н/о +30.3 +25.6 76 +45 +45 опасность
перегрева
1016.5 1015.5
00 11.06 Ю 5 н/о н/о +30.3 +25.6 76 +45 +45 опасность
перегрева
1016.3 1015.3 +26.1 0.0
01 11.06 Ю 4 н/о н/о +30.1 +25.0 74 +43 +43 опасность
перегрева
1016.2 1015.2
02 11.06 Ю 4 н/о н/о +30.8 +25.9 75 +46 +46 опасность
перегрева
1016.0 1015.0
03 11.06 ЮВ 4 н/о н/о +30.5 +26.2 78 +46 +46 опасность
перегрева
1015.6 1014.6
04 11.06 Ю 4 н/о н/о +29.9 +26.1 80 +45 +45 опасность
перегрева
1015.4 1014.4
05 11.06 ЮВ 4 н/о н/о +30.3 +26.0 78 +46 +46 опасность
перегрева
1015.2 1014.2
06 11.06 ЮВ 4 н/о н/о +30.0 +25.7 78 +45 +45 опасность
перегрева
1014.9 1013.9 0.0
07 11.06 ЮВ 3 н/о н/о +29.7 +26.1 81 +45 +45 опасность
перегрева
1015.3 1014.3
08 11.06 Ю 3 н/о н/о +28.3 +25.5 85 +42 +42 опасность
перегрева
1015.7 1014.7
09 11.06 Ю 4 н/о н/о +28.0 +25.4 86 +41 +41 опасность
перегрева
1016.3 1015.3
10 11.06 Ю 3 н/о н/о +27.8 +25.1 85 +40 +40 очень
душно
1016.7 1015.7
11 11.06 Ю 4 н/о н/о +27.8 +24.9 84 +40 +40 очень
душно
1017.1 1016.1
12 11.06 Ю 3 н/о н/о +27.7 +24.8 84 +39 +39 очень
душно
1017.1 1016.1 +31.4 0.0
13 11.06 ЮВ 4 н/о н/о +27.6 +25.1 86 +40 +40 очень
душно
1016.7 1015.7
14 11.06 Ю 4 н/о н/о +27.5 +25.1 87 +40 +40 очень
душно
1016.2 1015.2
15 11.06 Ю 4 н/о н/о +27.6 +24.7 84 +39 +39 очень
душно
1015.9 1014.9
16 11.06 Ю 4 н/о н/о +27.3 +24.6 85 +39 +39 очень
душно
1015.6 1014.6
17 11.06 ЮВ 5 н/о н/о +27.3 +24.8 86 +39 +39 очень
душно
1015.7 1014.7
18 11.06 Ю 4 н/о н/о +27.2 +24.7 86 +39 +39 очень
душно
1015.8 1014.8
19 11.06 Ю 4 н/о н/о +27.2 +24.9 87 +39 +39 очень
душно
1016.0 1015.0
20 11.06 ЮВ 4 н/о н/о +27.9 +25.7 88 +41 +41 опасность
перегрева
1016.5 1015.5
21 11.06 Ю 5 н/о н/о +28.2 +25.0 83 +41 +41 опасность
перегрева
1016.6 1015.6
23 11.06 Ю 4 н/о н/о +29.9 +25.7 78 +44 +44 опасность
перегрева
1016.8 1015.8
00 12.06 Ю 4 н/о н/о +30.0 +25.7 78 +45 +45 опасность
перегрева
1016.3 1015.3 +27.0
01 12.06 ЮВ 5 н/о н/о +30.4 +25.7 76 +45 +45 опасность
перегрева
1015.7 1014.7
02 12.06 ЮВ 6 н/о н/о +30.8 +25.4 73 +45 +45 опасность
перегрева
1015.3 1014.3
03 12.06 ЮВ 8 н/о н/о +30.8 +25.2 72 +45 +45 опасность
перегрева
1014.7 1013.7
04 12.06 Ю 6 н/о н/о +30.7 +25.3 73 +45 +45 опасность
перегрева
1014.4 1013.4
05 12.06 Ю 6 н/о н/о +30.2 +24.1 70 +42 +42 опасность
перегрева
1014.3 1013.3
06 12.06 Ю 5 н/о н/о +29.3 +24.0 73 +41 +41 опасность
перегрева
1014.4 1013.4
07 12.06 Ю 5 н/о н/о +28.8 +23.9 75 +40 +40 очень
душно
1014.6 1013.6
08 12.06 Ю 5 н/о н/о +28.2 +24.0 78 +39 +39 очень
душно
1015.2 1014.2
09 12.06 Ю 5 н/о н/о +27.9 +24.1 80 +39 +39 очень
душно
1016.0 1015.0
10 12.06 Ю 5 н/о н/о +27.5 +24.4 83 +39 +39 очень
душно
1016.4 1015.4
11 12.06 Ю 4 н/о н/о +27.4 +24.7 85 +39 +39 очень
душно
1016.5 1015.5
12 12.06 Ю 4 н/о н/о +27.4 +24.7 85 +39 +39 очень
душно
1016.6 1015.6 +31.4
13 12.06 Ю 4 н/о н/о +27.3 +24.8 86 +39 +39 очень
душно
1016.0 1015.0
14 12.06 Ю 5 н/о н/о +27.3 +24.8 86 +39 +39 очень
душно
1015.6 1014.6
15 12.06 Ю 4 н/о н/о +27.2 +25.2 89 +39 +39 очень
душно
1014.8 1013.8
16 12.06 Ю 4 н/о н/о +27.0 +24.8 88 +39 +39 очень
душно
1014.3 1013.3
17 12.06 Ю 4 н/о н/о +27.0 +25.0 89 +39 +39 очень
душно
1014.1 1013.1
18 12.06 Ю 5 н/о н/о +27.2 +25.0 88 +39 +39 очень
душно
1014.1 1013.1
19 12.06 Ю 5 н/о н/о +27.2 +25.2 89 +39 +39 очень
душно
1014.1 1013.1
20 12.06 Ю 4 н/о н/о +27.9 +25.7 88 +41 +41 опасность
перегрева
1014.5 1013.5
21 12.06 Ю 5 н/о н/о +28.3 +25.1 83 +41 +41 опасность
перегрева
1015.1 1014.1
22 12.06 Ю 5 н/о н/о +29.3 +25.9 82 +44 +44 опасность
перегрева
1015.2 1014.2
23 12.06 ЮВ 4 н/о н/о +27.7 +26.1 91 +42 +42 опасность
перегрева
1015.3 1014.3
00 13.06 Ю 5 н/о н/о +29.2 +27.0 88 +46 +46 опасность
перегрева
1015.2 1014.2 +26.8 1
01 13.06 Ю 4 н/о н/о +29.7 +26.3 82 +45 +45 опасность
перегрева
1015.3 1014.3
02 13.06 Ю 5 н/о н/о +29.6 +25.8 80 +44 +44 опасность
перегрева
1014.9 1013.9
03 13.06 Ю 4 н/о н/о +30.5 +26.4 79 +47 +47 опасность
перегрева
1014.4 1013.4
04 13.06 Ю 5 н/о н/о +31.0 +26.5 77 +47 +47 опасность
перегрева
1014.3 1013.3
05 13.06 Ю 4 н/о н/о +30.4 +26.4 79 +46 +46 опасность
перегрева
1013.8 1012.8
06 13.06 Ю 4 н/о н/о +29.8 +26.0 80 +45 +45 опасность
перегрева
1013.5 1012.5
07 13.06 Ю 4 н/о н/о +29.3 +25.7 81 +43 +43 опасность
перегрева
1013.7 1012.7
08 13.06 Ю 3 н/о н/о +28.2 +25.2 84 +41 +41 опасность
перегрева
1014.2 1013.2
09 13.06 Ю 3 н/о н/о +27.6 +25.2 87 +40 +40 очень
душно
1014.9 1013.9
10 13.06 Ю 3 н/о н/о +27.5 +25.5 89 +40 +40 очень
душно
1015.2 1014.2
11 13.06 ЮВ 3 н/о н/о +27.5 +25.3 88 +40 +40 очень
душно
1015.2 1014.2
12 13.06 ЮВ 2 н/о н/о +27.3 +25.5 90 +40 +40 очень
душно
1015.3 1014.3 +31.5
13 13.06 ЮВ 4 н/о н/о +27.4 +25.8 91 +41 +41 опасность
перегрева
1014.9 1013.9
14 13.06 ЮВ 4 н/о н/о +27.3 +25.3 89 +40 +40 очень
душно
1014.4 1013.4
15 13.06 ЮВ 5 н/о н/о +27.4 +25.6 90 +40 +40 очень
душно
1014.0 1013.0
16 13.06 ЮВ 4 н/о н/о +27.3 +25.5 90 +40 +40 очень
душно
1013.6 1012.6
17 13.06 Ю 4 н/о н/о +27.2 +25.0 88 +39 +39 очень
душно
1013.4 1012.4
18 13.06 Ю 4 н/о н/о +27.2 +25.0 88 +39 +39 очень
душно
1013.6 1012.6
19 13.06 Ю 4 н/о н/о +27.0 +25.2 90 +39 +39 очень
душно
1013.8 1012.8
20 13.06 Ю 5 н/о н/о +27.4 +25.1 87 +39 +39 очень
душно
1013.9 1012.9
21 13.06 Ю 4 н/о н/о +28.4 +25.4 84 +42 +42 опасность
перегрева
1014.1 1013.1
22 13.06 Ю 5 н/о н/о +29.0 +25.2 80 +42 +42 опасность
перегрева
1014.1 1013.1
23 13.06 Ю 4 н/о н/о +29.6 +25.8 80 +44 +44 опасность
перегрева
1014.3 1013.3
00 14.06 Ю 4 н/о н/о +29.5 +25.7 80 +44 +44 опасность
перегрева
1014.4 1013.4 +26.9
02 14.06 Ю 5 н/о н/о +30.9 +25.0 71 +44 +44 опасность
перегрева
1013.8 1012.8
03 14.06 Ю 4 н/о н/о +30.5 +25.3 74 +44 +44 опасность
перегрева
1013.6 1012.6
04 14.06 Ю 3 н/о н/о +29.6 +24.5 74 +42 +42 опасность
перегрева
1013.2 1012.2
05 14.06 Ю 3 н/о н/о +29.9 +25.2 76 +43 +43 опасность
перегрева
1013.0 1012.0
06 14.06 Ю 3 н/о н/о +29.5 +25.3 78 +43 +43 опасность
перегрева
1012.6 1011.6
07 14.06 Ю 3 н/о н/о +28.6 +25.0 81 +41 +41 опасность
перегрева
1013.0 1012.0
08 14.06 Ю 2 н/о н/о +28.0 +24.6 82 +40 +40 очень
душно
1013.2 1012.2
09 14.06 Ю 2 н/о н/о +27.2 +24.7 86 +39 +39 очень
душно
1013.8 1012.8
10 14.06 Ю 2 н/о н/о +27.1 +24.8 87 +39 +39 очень
душно
1014.2 1013.2
11 14.06 Ю 3 н/о н/о +26.7 +24.7 89 +38 +38 очень
душно
1014.4 1013.4
12 14.06 Ю 3 н/о н/о +26.9 +25.1 90 +39 +39 очень
душно
1014.9 1013.9 +31.5
13 14.06 ЮВ 4 н/о н/о +27.3 +24.2 83 +38 +38 очень
душно
1014.4 1013.4
14 14.06 Ю 3 н/о н/о +27.2 +24.3 84 +38 +38 очень
душно
1013.7 1012.7
15 14.06 Ю 3 н/о н/о +26.9 +24.4 86 +38 +38 очень
душно
1013.6 1012.6
16 14.06 Ю 4 н/о н/о +26.9 +24.4 86 +38 +38 очень
душно
1013.1 1012.1
17 14.06 Ю 4 н/о н/о +26.9 +24.4 86 +38 +38 очень
душно
1013.2 1012.2
18 14.06 Ю 4 н/о н/о +26.6 +24.3 87 +37 +37 очень
душно
1013.4 1012.4
19 14.06 Ю 3 н/о н/о +26.7 +24.6 88 +38 +38 очень
душно
1013.6 1012.6
20 14.06 Ю 3 н/о н/о +27.5 +25.3 88 +40 +40 очень
душно
1014.1 1013.1
21 14.06 Ю 3 н/о н/о +28.2 +25.4 85 +41 +41 опасность
перегрева
1014.6 1013.6
22 14.06 Ю 4 н/о н/о +28.4 +25.6 85 +42 +42 опасность
перегрева
1014.8 1013.8
23 14.06 Ю 4 н/о н/о +28.6 +25.6 84 +42 +42 опасность
перегрева
1015.0 1014.0
00 15.06 Ю 4 н/о н/о +28.9 +25.9 84 +43 +43 опасность
перегрева
1015.1 1014.1 +26.4
01 15.06 Ю 4 н/о н/о +29.9 +25.9 79 +45 +45 опасность
перегрева
1015.0 1014.0
02 15.06 Ю 4 н/о н/о +29.9 +25.7 78 +44 +44 опасность
перегрева
1014.5 1013.5
03 15.06 Ю 4 н/о н/о +29.9 +25.9 79 +45 +45 опасность
перегрева
1014.1 1013.1
04 15.06 Ю 3 н/о н/о +29.0 +25.6 82 +43 +43 опасность
перегрева
1013.9 1012.9
05 15.06 Ю 2 н/о н/о +29.2 +25.4 80 +43 +43 опасность
перегрева
1013.9 1012.9
06 15.06 ЮВ 2 н/о н/о +29.6 +26.0 81 +44 +44 опасность
перегрева
1013.8 1012.8
07 15.06 В 3 н/о н/о +28.9 +25.9 84 +43 +43 опасность
перегрева
1014.1 1013.1
08 15.06 В 4 н/о н/о +28.4 +25.8 86 +42 +42 опасность
перегрева
1014.4 1013.4
09 15.06 В 4 н/о н/о +28.3 +25.9 87 +42 +42 опасность
перегрева
1014.8 1013.8
10 15.06 ЮВ 3 н/о н/о +28.0 +26.0 89 +42 +42 опасность
перегрева
1015.3 1014.3
11 15.06 ЮВ 3 н/о н/о +28.0 +26.4 91 +43 +43 опасность
перегрева
1015.6 1014.6
12 15.06 ЮВ 4 н/о н/о +27.8 +25.8 89 +41 +41 опасность
перегрева
1016.1 1015.1 +30.4
13 15.06 ЮВ 4 н/о н/о +27.9 +25.9 89 +42 +42 опасность
перегрева
1015.7 1014.7
14 15.06 ЮВ 4 н/о н/о +27.8 +26.0 90 +42 +42 опасность
перегрева
1015.5 1014.5
15 15.06 ЮВ 4 н/о н/о +27.7 +25.7 89 +41 +41 опасность
перегрева
1015.0 1014.0
16 15.06 ЮВ 4 н/о н/о +27.4 +25.2 88 +40 +40 очень
душно
1014.6 1013.6
17 15.06 ЮВ 3 н/о н/о +27.3 +25.3 89 +40 +40 очень
душно
1014.5 1013.5
18 15.06 ЮВ 3 н/о н/о +27.1 +25.1 89 +39 +39 очень
душно
1014.8 1013.8
19 15.06 Ю 3 н/о н/о +27.1 +25.1 89 +39 +39 очень
душно
1015.1 1014.1
20 15.06 ЮВ 4 н/о н/о +27.9 +25.7 88 +41 +41 опасность
перегрева
1015.4 1014.4
21 15.06 ЮВ 3 н/о н/о +28.4 +25.8 86 +42 +42 опасность
перегрева
1015.6 1014.6
22 15.06 ЮВ 4 н/о н/о +29.8 +26.2 81 +45 +45 опасность
перегрева
1015.9 1014.9
23 15.06 ЮВ 4 н/о н/о +30.5 +26.0 77 +46 +46 опасность
перегрева
1016.1 1015.1
00 16.06 ЮВ 4 н/о н/о +30.6 +25.9 76 +46 +46 опасность
перегрева
1015.8 1014.8 +27.1
01 16.06 ЮВ 4 н/о н/о +30.8 +26.3 77 +47 +47 опасность
перегрева
1015.7 1014.7
02 16.06 ЮВ 4 н/о н/о +31.4 +26.4 75 +48 +48 опасность
перегрева
1015.4 1014.4
03 16.06 В 4 н/о н/о +31.0 +26.1 75 +46 +46 опасность
перегрева
1015.0 1014.0
04 16.06 ЮВ 4 н/о н/о +30.7 +25.5 74 +45 +45 опасность
перегрева
1015.0 1014.0
05 16.06 В 3 н/о н/о +30.9 +26.0 75 +46 +46 опасность
перегрева
1015.1 1014.1
06 16.06 В 4 н/о н/о +30.6 +25.7 75 +45 +45 опасность
перегрева
1014.7 1013.7
07 16.06 В 4 н/о н/о +29.9 +25.7 78 +44 +44 опасность
перегрева
1014.9 1013.9
08 16.06 В 5 н/о н/о +29.1 +25.7 82 +43 +43 опасность
перегрева
1015.4 1014.4
09 16.06 В 5 н/о н/о +28.7 +25.7 84 +43 +43 опасность
перегрева
1015.9 1014.9
10 16.06 В 5 н/о н/о +28.6 +25.6 84 +42 +42 опасность
перегрева
1016.3 1015.3
11 16.06 В 5 н/о н/о +28.5 +25.3 83 +42 +42 опасность
перегрева
1016.6 1015.6
12 16.06 В 5 н/о н/о +28.5 +25.1 82 +41 +41 опасность
перегрева
1016.8 1015.8 +31.9
13 16.06 В 5 н/о н/о +28.4 +24.8 81 +41 +41 опасность
перегрева
1016.6 1015.6
14 16.06 В 5 н/о н/о +27.9 +25.0 84 +40 +40 очень
душно
1016.2 1015.2
15 16.06 В 5 н/о н/о +27.8 +24.9 84 +40 +40 очень
душно
1015.7 1014.7
16 16.06 В 5 н/о н/о +27.7 +25.0 85 +40 +40 очень
душно
1015.4 1014.4
17 16.06 В 5 н/о н/о +27.6 +24.9 85 +39 +39 очень
душно
1015.2 1014.2
18 16.06 В 5 н/о н/о +27.5 +24.8 85 +39 +39 очень
душно
1015.6 1014.6
19 16.06 В 5 н/о н/о +27.4 +24.7 85 +39 +39 очень
душно
1016.0 1015.0
20 16.06 В 5 н/о н/о +27.8 +24.7 83 +39 +39 очень
душно
1016.2 1015.2
21 16.06 В 5 н/о н/о +28.9 +24.5 77 +41 +41 опасность
перегрева
1016.6 1015.6
22 16.06 В 5 н/о н/о +29.2 +24.8 77 +42 +42 опасность
перегрева
1016.8 1015.8
23 16.06 В 5 н/о н/о +29.4 +24.1 73 +41 +41 опасность
перегрева
1016.8 1015.8
00 17.06 В 5 н/о н/о +30.2 +24.6 72 +43 +43 опасность
перегрева
1016.7 1015.7 +27.4
01 17.06 В 5 н/о н/о +30.4 +25.0 73 +44 +44 опасность
перегрева
1016.5 1015.5
02 17.06 В 5 н/о н/о +30.3 +24.9 73 +43 +43 опасность
перегрева
1016.3 1015.3
03 17.06 В 5 н/о н/о +30.3 +24.7 72 +43 +43 опасность
перегрева
1015.8 1014.8
05 17.06 В 6 н/о н/о +29.8 +25.6 78 +44 +44 опасность
перегрева
1015.0 1014.0
06 17.06 В 6 н/о н/о +29.7 +25.2 77 +43 +43 опасность
перегрева
1015.0 1014.0
07 17.06 В 5 н/о н/о +29.3 +24.9 77 +42 +42 опасность
перегрева
1015.2 1014.2
08 17.06 В 6 н/о н/о +28.7 +24.9 80 +41 +41 опасность
перегрева
1015.7 1014.7
09 17.06 В 6 н/о н/о +28.4 +24.8 81 +41 +41 опасность
перегрева
1015.9 1014.9
10 17.06 В 6 н/о н/о +28.3 +24.7 81 +40 +40 очень
душно
1016.6 1015.6
11 17.06 В 7 н/о н/о +28.2 +24.6 81 +40 +40 очень
душно
1016.8 1015.8
12 17.06 В 7 н/о н/о +28.0 +24.2 80 +39 +39 очень
душно
1017.1 1016.1 +31.6
13 17.06 В 7 н/о н/о +28.0 +24.0 79 +39 +39 очень
душно
1016.7 1015.7
14 17.06 В 7 н/о н/о +27.7 +23.7 79 +38 +38 очень
душно
1016.0 1015.0
15 17.06 В 7 н/о н/о +27.6 +23.8 80 +38 +38 очень
душно
1015.4 1014.4
16 17.06 В 7 н/о н/о +27.6 +23.2 77 +37 +37 очень
душно
1015.0 1014.0
18 17.06 В 6 н/о н/о +27.6 +23.4 78 +37 +37 очень
душно
1014.8 1013.8
19 17.06 В 6 н/о н/о +27.4 +23.2 78 +37 +37 очень
душно
1015.2 1014.2
20 17.06 В 6 н/о н/о +27.6 +23.6 79 +38 +38 очень
душно
1015.5 1014.5

 

Местоположение метеостанции Минамитори (Япония): широта 24.28 долгота 153.98 высота над уровнем моря 8 м.

В архиве по умолчанию представлена погода на Минамитори за последнюю неделю. Архивные данные за месяц целиком и за предыдущие месяцы, начиная с января 2011 года, Вы можете получить, выбрав интересующий диапазон дат из раскрывающегося списка и нажав кнопку "Ввод!".


*Определитесь, кто Вы:
робот инопланетянин человек

Внимание! Время в таблицах - всемирное. Для получения местного времени необходимо прибавить поправку, которая равна 9 ч.

Смотрите также архив погоды в соседних городах и на ближайших метеорологических станциях:

Погода на Титидзиме (Япония) (1221 км)
Погода на Хатидзёдзиме (Япония) (1696 км)
Погода на Миякедзиме (Япония) (1778 км)
Погода в Кацууре (Япония) (1787 км)
Погода в Тёси (Япония) (1791 км)
Погода в Татеяме (Япония) (1807 км)
Погода на Осиме (Япония) (1827 км)
Погода в Тибе (Япония) (1833 км)
Погода в Иокогаме (Япония) (1853 км)
Погода в Иродзаки (Япония) (1858 км)

Пояснения к столбцам:

Ветер - указаны скорость ветра в м/с - средняя за 10 мин, порывы в срок и между сроками (в фигурных скобках) и направление, откуда дует ветер: С - северный, СВ - северо-восточный, В - восточный, ЮВ - юго-восточный, Ю - южный, ЮЗ - юго-западный, З - западный, СЗ - северо-западный.
Видимость - горизонтальная дальность видимости в метрах или километрах. При видимости от 1 до 10 км при отсутствии осадков обычно наблюдается дымка, при ухудшении видимости до 1 км и менее - туман. В сухую погоду видимость может ухудшаться дымом, пылью или мглою.
Явления - указаны атмосферные явления, наблюдавшиеся в срок или в последний час перед сроком; фигурными скобками обозначены явления, наблюдавшиеся между сроками (за 1-3 часа до срока); квадратными скобками обозначены град или гололедные отложения с указанием их диаметра в мм.
Облачность - указаны через наклонную черту общая и нижняя облачность в баллах и высота нижней границы облаков в метрах; квадратными скобками обозначены формы облаков: Ci - перистые, Cs - перисто-слоистые, Cc - перисто-кучевые, Ac - высококучевые, As - высокослоистые, Sc - слоисто-кучевые, Ns - слоисто-дождевые, Cu - кучевые, Cb - кучево-дождевые. Подробнее классификацию облаков см. в Атласе облаков (PDF).
T - Температура воздуха - температура, измеренная на высоте 2 м над землей.
Td - Температура точки росы - температура, при понижении до которой содержащийся в воздухе водяной пар достигнет насыщения.
f - Относительная влажность воздуха - влажноcть воздуха, измеренная на высоте 2 м над землей.
Te - Эффективная температура - температура, которую ощущает одетый по сезону человек в тени. Характеристика душности погоды. При расчете учитывается влияние влажности воздуха и скорости ветра на теплоощущения человека.
Tes - Эффективная температура на солнце - температура, которую ощущает человек, с поправкой на солнечный нагрев. Характеристика знойности погоды. Зависит от высоты солнца над горизонтом, облачности и скорости ветра. Ночью, в пасмурную погоду, а также при ветре 12 м/с и более поправка равна нулю.
P - Атмосферное давление - приведенное к уровню моря атмосферное давление.
Po - Атмосферное давление - измеренное на уровне метеостанции атмосферное давление.
Tmin - Минимальная температура - минимум температуры воздуха на высоте 2 м над землей.
Tmax - Максимальная температура - максимум температуры воздуха на высоте 2 м над землей.
R - Количество осадков - Количество выпавших осадков за период времени, мм. При наведении курсора мыши на число - период времени, за который выпало указанное количество осадков.
R24 - Количество осадков - Количество выпавших осадков за 24 часа, мм.
S - Снежный покров - Высота снежного покрова, см. При наведении курсора мыши на число - состояние снежного покрова и степень покрытия местности в баллах.